Location: Hastringsfeld
(50.9620°N, 10.4787°E)
Time: 03:38:39
(UTC+00:00)

Cosmos 1271 Rocket - Pass Details

Date: 26 September 2023
Orbit: 480 x 521 km, 81.2° (Epoch: 29 November)

Event Time Altitude Azimuth Distance (km) Brightness Sun altitude
Rises 04:28:47 0° 340° (NNW) 2,634 6.2 -7.3°
Reaches altitude 10° 04:31:03 10° 332° (NNW) 1,734 5.2 -6.9°
Maximum altitude 04:34:31 35° 266° (W) 829 3.2 -6.4°
Drops below altitude 10° 04:37:55 10° 199° (SSW) 1,693 5.1 -5.9°
Sets 04:40:07 0° 191° (S) 2,562 6.1 -5.5°
